Weather History for KDEW - October, 2012

Change the Weather History Date:

Thursday, October 18, 2012

  Actual Average Record
Temperature  
Mean Temperature 45 °F 43 °F  
Max Temperature 60 °F 57 °F 72 °F (2003)
Min Temperature 29 °F 30 °F 22 °F (2010)
Degree Days  
Heating Degree Days 20 22  
Month to date heating degree days 308 335  
Since 1 July heating degree days 618 754  
Cooling Degree Days 0 0  
Month to date cooling degree days 0 0  
Year to date cooling degree days 232 187  
Moisture  
Dew Point 32 °F    
Average Humidity 67    
Maximum Humidity 100    
Minimum Humidity 33    
Precipitation  
Precipitation 0.00 in 0.06 in 0.18 in (2004)
Month to date precipitation 0.56 0.81  
Year to date precipitation 18.32 15.25  
Sea Level Pressure  
Sea Level Pressure 30.16 in    
Wind  
Wind Speed 3 mph (NE)    
Max Wind Speed 8 mph    
Max Gust Speed 12 mph    
Visibility 10 miles    
Events      
T = Trace of Precipitation, MM = Missing Value Source: NWS Daily Summary

Daily Weather History Graph

Daily Weather History Graph

Search for Another Location

Airport or City:

Trip Planner

Search our weather history database for the weather conditions in past years. The results will help you decide how hot, cold, wet, or windy it might be!

Date:

Astronomy

Oct. 18, 2012 Rise Set
Actual Time 7:14 AM PDT 5:54 PM PDT
Civil Twilight 6:42 AM PDT 6:25 PM PDT
Nautical Twilight 6:06 AM PDT 7:01 PM PDT
Astronomical Twilight 5:30 AM PDT 7:37 PM PDT
Moon 11:17 AM PDT (10/18) 8:17 PM PDT (10/18)
Length of Visible Light 11h 43m
Length of Day
10h 40m
Waxing Crescent, 15% of the Moon is Illuminated
Oct 18
Waxing Crescent
Oct 21
First Quarter
Oct 29
Full
Nov 6
Last Quarter
Nov 13
New

Hourly Weather History & Observations

Time (PDT) Temp. Windchill Dew Point Humidity Pressure Visibility Wind Dir Wind Speed Gust Speed Precip Events Conditions
12:53 AM 32.0 °F - 28.0 °F 85% 30.31 in 10.0 mi Calm Calm - N/A   Mostly Cloudy
1:53 AM 32.0 °F 28.7 °F 28.0 °F 85% 30.30 in 10.0 mi NE 3.5 mph - N/A   Clear
2:53 AM 28.9 °F - 28.0 °F 96% 30.32 in 10.0 mi Calm Calm - N/A   Clear
3:53 AM 36.0 °F - 30.9 °F 82% 30.29 in 10.0 mi Calm Calm - N/A   Overcast
4:53 AM 37.0 °F - 33.1 °F 86% 30.28 in 10.0 mi Calm Calm - N/A   Overcast
5:53 AM 34.0 °F 31.0 °F 30.9 °F 89% 30.30 in 10.0 mi North 3.5 mph - N/A   Clear
6:53 AM 32.0 °F - 30.0 °F 92% 30.31 in 10.0 mi Calm Calm - N/A   Clear
7:53 AM 32.0 °F 27.5 °F 30.0 °F 92% 30.32 in 10.0 mi NW 4.6 mph - N/A   Clear
8:53 AM 41.0 °F - 34.0 °F 76% 30.31 in 10.0 mi Calm Calm - N/A   Clear
9:53 AM 45.0 °F 42.6 °F 34.0 °F 65% 30.29 in 10.0 mi NNE 4.6 mph - N/A   Clear
10:53 AM 48.9 °F - 33.1 °F 54% 30.28 in 10.0 mi Calm Calm - N/A   Clear
11:53 AM 52.0 °F - 33.1 °F 49% 30.26 in 10.0 mi SE 4.6 mph - N/A   Clear
12:53 PM 55.0 °F - 30.9 °F 40% 30.22 in 10.0 mi SSE 8.1 mph - N/A   Clear
1:53 PM 55.9 °F - 30.0 °F 37% 30.18 in 10.0 mi South 6.9 mph - N/A   Clear
2:53 PM 57.9 °F - 30.0 °F 35% 30.14 in 10.0 mi SE 4.6 mph - N/A   Clear
3:53 PM 57.9 °F - 28.0 °F 32% 30.10 in 10.0 mi Calm Calm - N/A   Clear
4:53 PM 57.0 °F - 30.9 °F 37% 30.06 in 10.0 mi NNE 3.5 mph - N/A   Clear
5:53 PM 52.0 °F - 33.1 °F 49% 30.04 in 10.0 mi NNE 4.6 mph - N/A   Clear
6:53 PM 48.9 °F - 34.0 °F 56% 30.01 in 10.0 mi NNE 4.6 mph - N/A   Clear
7:53 PM 50.0 °F - 33.1 °F 52% 29.98 in 10.0 mi NNE 5.8 mph - N/A   Clear
8:53 PM 46.9 °F - 33.1 °F 59% 29.93 in 10.0 mi NNE 4.6 mph - N/A   Clear
9:53 PM 48.9 °F - 33.1 °F 54% 29.91 in 10.0 mi Calm Calm - N/A   Clear
10:53 PM 45.0 °F 43.5 °F 33.1 °F 63% 29.88 in 10.0 mi NE 3.5 mph - N/A   Clear
11:53 PM 44.1 °F 42.5 °F 35.1 °F 71% 29.86 in 10.0 mi NNW 3.5 mph - N/A   Clear